SUR4160 SAZN-SABE

Flight info

Callsign SUR4160
Flight time 1h 43m
Altitude 23000
Route NIDBA T655 ASADA
Aircraft DH8D/M-SDE2FGIRW/L

Departure

Time 2026-05-04 18:52
Airport Presidente Perón International Airport (SAZN)

Arrival

Time 2026-05-04 20:36
Airport Aeroparque Jorge Newbery (SABE)
Time Latitude Longitude Altitude Speed Heading
2026-05-04 18:26 -38.95071 -68.14116 907 ft 5 kts 348°
2026-05-04 18:27 -38.95040 -68.14123 907 ft 6 kts 349°
2026-05-04 18:27 -38.94988 -68.14136 907 ft 0 kts 349°
2026-05-04 18:27 -38.94979 -68.14137 907 ft 0 kts 354°
2026-05-04 18:27 -38.94971 -68.14137 907 ft 5 kts
2026-05-04 18:28 -38.94919 -68.14168 907 ft 8 kts 297°
2026-05-04 18:28 -38.94913 -68.14256 907 ft 11 kts 272°
2026-05-04 18:28 -38.94909 -68.14368 907 ft 13 kts 273°
2026-05-04 18:28 -38.94905 -68.14462 907 ft 11 kts 274°
2026-05-04 18:29 -38.94899 -68.14576 907 ft 8 kts 271°
2026-05-04 18:29 -38.94899 -68.14669 907 ft 11 kts 270°
2026-05-04 18:29 -38.94899 -68.14782 907 ft 13 kts 270°
2026-05-04 18:29 -38.94898 -68.14911 907 ft 15 kts 271°
2026-05-04 18:30 -38.94891 -68.15172 907 ft 10 kts 271°
2026-05-04 18:30 -38.94891 -68.15264 907 ft 9 kts 269°
2026-05-04 18:30 -38.94891 -68.15353 907 ft 8 kts 269°
2026-05-04 18:31 -38.94893 -68.15442 907 ft 11 kts 269°
2026-05-04 18:31 -38.94893 -68.15555 907 ft 14 kts 270°
2026-05-04 18:31 -38.94893 -68.15633 907 ft 9 kts 270°
2026-05-04 18:31 -38.94893 -68.15726 907 ft 10 kts 270°
2026-05-04 18:32 -38.94891 -68.15830 907 ft 13 kts 271°
2026-05-04 18:32 -38.94888 -68.15956 907 ft 15 kts 272°
2026-05-04 18:32 -38.94889 -68.16067 907 ft 12 kts 268°
2026-05-04 18:32 -38.94891 -68.16188 907 ft 14 kts 269°
2026-05-04 18:33 -38.94892 -68.16328 907 ft 16 kts 269°
2026-05-04 18:33 -38.94894 -68.16482 907 ft 17 kts 265°
2026-05-04 18:33 -38.94906 -68.16644 907 ft 18 kts 270°
2026-05-04 18:33 -38.94902 -68.16811 907 ft 16 kts 272°
2026-05-04 18:34 -38.94897 -68.16937 907 ft 13 kts 273°
2026-05-04 18:34 -38.94894 -68.17020 907 ft 2 kts 250°
2026-05-04 18:34 -38.94906 -68.17016 907 ft 0 kts 92°
2026-05-04 18:34 -38.94906 -68.17015 907 ft 0 kts 92°
2026-05-04 18:37 -38.94908 -68.17010 907 ft 1 kts 129°
2026-05-04 18:37 -38.94915 -68.17020 907 ft 2 kts 301°
2026-05-04 18:38 -38.94895 -68.17004 907 ft 4 kts
2026-05-04 18:38 -38.94901 -68.17030 907 ft 3 kts 179°
2026-05-04 18:38 -38.94905 -68.16984 907 ft 7 kts 87°
2026-05-04 18:38 -38.94902 -68.16898 907 ft 11 kts 87°
2026-05-04 18:39 -38.94898 -68.16782 907 ft 14 kts 88°
2026-05-04 18:39 -38.94894 -68.16646 907 ft 16 kts 88°
2026-05-04 18:39 -38.94889 -68.16493 907 ft 17 kts 87°
2026-05-04 18:39 -38.94887 -68.16329 907 ft 18 kts 92°
2026-05-04 18:40 -38.94897 -68.16198 907 ft 0 kts 121°
2026-05-04 18:40 -38.94907 -68.16178 907 ft 9 kts 121°
2026-05-04 18:40 -38.94939 -68.16111 907 ft 8 kts 122°
2026-05-04 18:41 -38.94967 -68.16054 907 ft 4 kts 119°
2026-05-04 18:41 -38.94980 -68.16019 907 ft 5 kts 114°
2026-05-04 18:41 -38.94995 -68.15966 907 ft 7 kts 104°
2026-05-04 18:41 -38.95010 -68.15898 907 ft 8 kts 106°
2026-05-04 18:42 -38.95025 -68.15820 907 ft 9 kts 99°
2026-05-04 18:42 -38.95030 -68.15726 907 ft 11 kts 92°
2026-05-04 18:42 -38.95035 -68.15623 907 ft 11 kts 94°
2026-05-04 18:42 -38.95051 -68.15514 907 ft 12 kts 108°
2026-05-04 18:43 -38.95067 -68.15399 907 ft 13 kts 93°
2026-05-04 18:43 -38.95074 -68.15277 907 ft 13 kts 94°
2026-05-04 18:43 -38.95083 -68.15153 907 ft 14 kts 96°
2026-05-04 18:43 -38.95094 -68.15023 907 ft 14 kts 92°
2026-05-04 18:44 -38.95093 -68.14881 907 ft 18 kts 89°
2026-05-04 18:44 -38.95093 -68.14825 907 ft 19 kts 90°
2026-05-04 18:44 -38.95092 -68.14523 907 ft 21 kts 89°
2026-05-04 18:44 -38.95097 -68.14333 907 ft 18 kts 91°
2026-05-04 18:45 -38.95102 -68.14181 907 ft 12 kts 105°
2026-05-04 18:45 -38.95134 -68.14127 907 ft 2 kts 137°
2026-05-04 18:47 -38.95134 -68.14125 907 ft 0 kts 126°
2026-05-04 18:47 -38.95129 -68.14112 907 ft 3 kts 14°
2026-05-04 18:48 -38.95099 -68.14114 907 ft 6 kts 355°
2026-05-04 18:48 -38.95058 -68.14117 907 ft 4 kts 359°
2026-05-04 18:48 -38.95043 -68.14117 907 ft 0 kts
2026-05-04 18:50 -38.95035 -68.14117 907 ft 4 kts
2026-05-04 18:50 -38.94975 -68.14117 907 ft 11 kts
2026-05-04 18:51 -38.94911 -68.14149 907 ft 12 kts 296°
2026-05-04 18:51 -38.94897 -68.14283 907 ft 19 kts 268°
2026-05-04 18:51 -38.94901 -68.14644 907 ft 68 kts 269°
2026-05-04 18:51 -38.94906 -68.15530 908 ft 129 kts 270°
2026-05-04 18:52 -38.94883 -68.16832 1066 ft 152 kts 275°
2026-05-04 18:52 -38.94787 -68.18142 1640 ft 143 kts 286°
2026-05-04 18:52 -38.94403 -68.19325 2013 ft 147 kts 306°
2026-05-04 18:52 -38.93750 -68.20252 2484 ft 135 kts 323°
2026-05-04 18:53 -38.92848 -68.20652 2809 ft 145 kts 357°
2026-05-04 18:53 -38.91926 -68.20272 3346 ft 143 kts 29°
2026-05-04 18:53 -38.91321 -68.19286 3795 ft 151 kts 65°
2026-05-04 18:53 -38.91191 -68.17790 3787 ft 185 kts 97°
2026-05-04 18:54 -38.91663 -68.16187 4001 ft 199 kts 122°
2026-05-04 18:54 -38.92234 -68.14558 4279 ft 207 kts 98°
2026-05-04 18:54 -38.92387 -68.12676 4589 ft 217 kts 94°
2026-05-04 18:54 -38.92533 -68.10711 4884 ft 228 kts 93°
2026-05-04 18:55 -38.92472 -68.08637 5159 ft 236 kts 72°
2026-05-04 18:55 -38.91196 -68.04621 5721 ft 255 kts 63°
2026-05-04 18:55 -38.90454 -68.02522 5997 ft 262 kts 62°
2026-05-04 18:56 -38.89643 -68.00419 6316 ft 266 kts 59°
2026-05-04 18:56 -38.88737 -67.98325 6642 ft 270 kts 56°
2026-05-04 18:56 -38.87784 -67.96230 6964 ft 274 kts 55°
2026-05-04 18:56 -38.86800 -67.94093 7293 ft 278 kts 55°
2026-05-04 18:57 -38.85824 -67.91936 7616 ft 282 kts 55°
2026-05-04 18:57 -38.84846 -67.89745 7940 ft 285 kts 55°
2026-05-04 18:57 -38.83872 -67.87531 8262 ft 288 kts 55°
2026-05-04 18:57 -38.82896 -67.85295 8584 ft 291 kts 55°
2026-05-04 18:58 -38.81910 -67.83019 8902 ft 294 kts 55°
2026-05-04 18:58 -38.80925 -67.80727 9228 ft 296 kts 55°
2026-05-04 18:58 -38.79934 -67.78401 9550 ft 298 kts 55°
2026-05-04 18:58 -38.78943 -67.76045 9868 ft 299 kts 55°
2026-05-04 18:59 -38.77959 -67.73700 10185 ft 301 kts 55°
2026-05-04 18:59 -38.76974 -67.71341 10502 ft 303 kts 55°
2026-05-04 18:59 -38.75976 -67.68963 10819 ft 305 kts 55°
2026-05-04 18:59 -38.74975 -67.66564 11138 ft 307 kts 55°
2026-05-04 19:00 -38.73961 -67.64134 11451 ft 309 kts 55°
2026-05-04 19:00 -38.72953 -67.61707 11765 ft 312 kts 55°
2026-05-04 19:00 -38.71939 -67.59264 12077 ft 314 kts 55°
2026-05-04 19:00 -38.70918 -67.56797 12395 ft 317 kts 55°
2026-05-04 19:01 -38.69883 -67.54265 12716 ft 319 kts 55°
2026-05-04 19:01 -38.68848 -67.51761 13030 ft 322 kts 55°
2026-05-04 19:01 -38.67798 -67.49210 13346 ft 326 kts 55°
2026-05-04 19:01 -38.66768 -67.46613 13658 ft 329 kts 56°
2026-05-04 19:02 -38.65743 -67.44014 13977 ft 332 kts 56°
2026-05-04 19:02 -38.64687 -67.41364 14300 ft 334 kts 56°
2026-05-04 19:02 -38.63631 -67.38735 14615 ft 336 kts 56°
2026-05-04 19:02 -38.62547 -67.36052 14927 ft 339 kts 56°
2026-05-04 19:03 -38.61470 -67.33398 15254 ft 340 kts 55°
2026-05-04 19:03 -38.60379 -67.30718 15593 ft 340 kts 55°
2026-05-04 19:03 -38.59292 -67.28056 15928 ft 341 kts 55°
2026-05-04 19:03 -38.58184 -67.25350 16267 ft 341 kts 55°
2026-05-04 19:04 -38.57080 -67.22659 16600 ft 342 kts 56°
2026-05-04 19:04 -38.55975 -67.19971 16928 ft 343 kts 56°
2026-05-04 19:04 -38.54867 -67.17279 17263 ft 344 kts 56°
2026-05-04 19:04 -38.53752 -67.14576 17594 ft 345 kts 56°
2026-05-04 19:05 -38.52638 -67.11876 17921 ft 346 kts 56°
2026-05-04 19:05 -38.51518 -67.09164 18260 ft 347 kts 56°
2026-05-04 19:05 -38.50399 -67.06460 18598 ft 348 kts 56°
2026-05-04 19:05 -38.49271 -67.03735 18936 ft 349 kts 56°
2026-05-04 19:06 -38.48127 -67.00974 19283 ft 350 kts 56°
2026-05-04 19:06 -38.46989 -66.98230 19620 ft 350 kts 56°
2026-05-04 19:06 -38.45855 -66.95496 19961 ft 351 kts 56°
2026-05-04 19:06 -38.44713 -66.92750 20300 ft 352 kts 56°
2026-05-04 19:07 -38.43572 -66.90005 20647 ft 352 kts 56°
2026-05-04 19:07 -38.42422 -66.87243 20996 ft 353 kts 56°
2026-05-04 19:07 -38.41275 -66.84492 21339 ft 353 kts 56°
2026-05-04 19:07 -38.40124 -66.81731 21681 ft 354 kts 56°
2026-05-04 19:08 -38.38973 -66.78973 22026 ft 354 kts 56°
2026-05-04 19:08 -38.37820 -66.76211 22374 ft 355 kts 56°
2026-05-04 19:08 -38.36664 -66.73448 22714 ft 355 kts 56°
2026-05-04 19:08 -38.35505 -66.70679 23034 ft 357 kts 56°
2026-05-04 19:09 -38.34310 -66.67839 22925 ft 368 kts 56°
2026-05-04 19:09 -38.33099 -66.64954 22907 ft 368 kts 56°
2026-05-04 19:09 -38.31899 -66.62097 22908 ft 368 kts 56°
2026-05-04 19:09 -38.30683 -66.59212 22908 ft 367 kts 56°
2026-05-04 19:10 -38.29480 -66.56365 22911 ft 367 kts 56°
2026-05-04 19:10 -38.28276 -66.53507 22911 ft 367 kts 56°
2026-05-04 19:10 -38.27070 -66.50648 22914 ft 367 kts 56°
2026-05-04 19:10 -38.25867 -66.47797 22916 ft 368 kts 56°
2026-05-04 19:11 -38.24663 -66.44947 22918 ft 369 kts 56°
2026-05-04 19:11 -38.23437 -66.42047 22917 ft 370 kts 56°
2026-05-04 19:11 -38.22224 -66.39181 22920 ft 371 kts 56°
2026-05-04 19:11 -38.21007 -66.36310 22926 ft 372 kts 56°
2026-05-04 19:12 -38.19787 -66.33431 22921 ft 372 kts 55°
2026-05-04 19:12 -38.17322 -66.27625 22921 ft 372 kts 55°
2026-05-04 19:12 -38.16099 -66.24750 22919 ft 373 kts 55°
2026-05-04 19:13 -38.14867 -66.21854 22923 ft 374 kts 55°
2026-05-04 19:13 -38.13628 -66.18948 22922 ft 375 kts 55°
2026-05-04 19:13 -38.12388 -66.16039 22923 ft 377 kts 55°
2026-05-04 19:13 -38.11125 -66.13079 22921 ft 378 kts 56°
2026-05-04 19:14 -38.09874 -66.10152 22921 ft 379 kts 56°
2026-05-04 19:14 -38.08614 -66.07202 22927 ft 380 kts 55°
2026-05-04 19:14 -38.07351 -66.04252 22924 ft 381 kts 56°
2026-05-04 19:14 -38.06086 -66.01298 22925 ft 382 kts 55°
2026-05-04 19:15 -38.04822 -65.98350 22924 ft 383 kts 56°
2026-05-04 19:15 -38.03556 -65.95400 22928 ft 384 kts 55°
2026-05-04 19:15 -38.02267 -65.92398 22926 ft 384 kts 56°
2026-05-04 19:15 -38.00995 -65.89439 22929 ft 385 kts 55°
2026-05-04 19:16 -37.99719 -65.86473 22925 ft 386 kts 56°
2026-05-04 19:16 -37.98435 -65.83493 22926 ft 386 kts 56°
2026-05-04 19:16 -37.97135 -65.80478 22927 ft 387 kts 55°
2026-05-04 19:16 -37.95849 -65.77498 22920 ft 387 kts 55°
2026-05-04 19:17 -37.94568 -65.74532 22917 ft 388 kts 56°
2026-05-04 19:17 -37.93266 -65.71523 22909 ft 388 kts 56°
2026-05-04 19:17 -37.91963 -65.68510 22911 ft 389 kts 56°
2026-05-04 19:17 -37.90667 -65.65520 22915 ft 389 kts 56°
2026-05-04 19:18 -37.89367 -65.62520 22916 ft 390 kts 56°
2026-05-04 19:18 -37.88067 -65.59523 22918 ft 390 kts 56°
2026-05-04 19:18 -37.86753 -65.56499 22916 ft 390 kts 56°
2026-05-04 19:18 -37.85454 -65.53513 22912 ft 391 kts 56°
2026-05-04 19:19 -37.84155 -65.50527 22915 ft 391 kts 56°
2026-05-04 19:19 -37.82839 -65.47506 22913 ft 391 kts 56°
2026-05-04 19:19 -37.81523 -65.44489 22901 ft 391 kts 56°
2026-05-04 19:19 -37.80220 -65.41503 22906 ft 391 kts 56°
2026-05-04 19:20 -37.78897 -65.38474 22907 ft 392 kts 56°
2026-05-04 19:20 -37.77588 -65.35480 22907 ft 392 kts 56°
2026-05-04 19:20 -37.76261 -65.32447 22910 ft 391 kts 56°
2026-05-04 19:20 -37.74949 -65.29452 22909 ft 390 kts 55°
2026-05-04 19:21 -37.73644 -65.26476 22907 ft 390 kts 55°
2026-05-04 19:21 -37.72335 -65.23493 22907 ft 389 kts 55°
2026-05-04 19:21 -37.71024 -65.20509 22905 ft 389 kts 55°
2026-05-04 19:21 -37.69719 -65.17541 22913 ft 389 kts 55°
2026-05-04 19:22 -37.68411 -65.14568 22913 ft 388 kts 55°
2026-05-04 19:22 -37.67086 -65.11563 22911 ft 388 kts 55°
2026-05-04 19:22 -37.65776 -65.08592 22909 ft 388 kts 55°
2026-05-04 19:22 -37.64473 -65.05640 22911 ft 388 kts 55°
2026-05-04 19:23 -37.63163 -65.02676 22911 ft 388 kts 55°
2026-05-04 19:23 -37.61852 -64.99709 22911 ft 388 kts 55°
2026-05-04 19:23 -37.60527 -64.96716 22911 ft 388 kts 55°
2026-05-04 19:23 -37.59215 -64.93755 22912 ft 388 kts 55°
2026-05-04 19:24 -37.57904 -64.90797 22909 ft 388 kts 55°
2026-05-04 19:24 -37.56590 -64.87837 22912 ft 388 kts 55°
2026-05-04 19:24 -37.55275 -64.84876 22908 ft 388 kts 55°
2026-05-04 19:24 -37.53960 -64.81919 22915 ft 388 kts 56°
2026-05-04 19:25 -37.52631 -64.78932 22917 ft 388 kts 55°
2026-05-04 19:25 -37.51326 -64.76002 22919 ft 388 kts 55°
2026-05-04 19:25 -37.50003 -64.73035 22918 ft 388 kts 55°
2026-05-04 19:25 -37.48692 -64.70096 22920 ft 388 kts 55°
2026-05-04 19:26 -37.47362 -64.67111 22920 ft 388 kts 55°
2026-05-04 19:26 -37.46044 -64.64159 22922 ft 388 kts 56°
2026-05-04 19:26 -37.44732 -64.61240 22922 ft 388 kts 55°
2026-05-04 19:26 -37.43406 -64.58281 22925 ft 388 kts 55°
2026-05-04 19:27 -37.42076 -64.55313 22921 ft 388 kts 56°
2026-05-04 19:27 -37.40745 -64.52347 22922 ft 389 kts 56°
2026-05-04 19:27 -37.39427 -64.49411 22923 ft 389 kts 56°
2026-05-04 19:27 -37.38099 -64.46455 22923 ft 389 kts 56°
2026-05-04 19:28 -37.36760 -64.43478 22917 ft 389 kts 55°
2026-05-04 19:28 -37.35430 -64.40526 22915 ft 389 kts 56°
2026-05-04 19:28 -37.34100 -64.37575 22915 ft 389 kts 56°
2026-05-04 19:28 -37.32766 -64.34628 22916 ft 389 kts 54°
2026-05-04 19:29 -37.31422 -64.31690 22917 ft 389 kts 54°
2026-05-04 19:29 -37.30062 -64.28719 22918 ft 388 kts 54°
2026-05-04 19:29 -37.28720 -64.25787 22914 ft 388 kts 54°
2026-05-04 19:29 -37.27381 -64.22865 22911 ft 388 kts 54°
2026-05-04 19:30 -37.26045 -64.19952 22909 ft 387 kts 55°
2026-05-04 19:30 -37.24711 -64.17045 22908 ft 387 kts 54°
2026-05-04 19:30 -37.23354 -64.14091 22906 ft 387 kts 54°
2026-05-04 19:30 -37.22020 -64.11189 22903 ft 387 kts 55°
2026-05-04 19:31 -37.20671 -64.08257 22906 ft 387 kts 54°
2026-05-04 19:31 -37.19336 -64.05357 22908 ft 387 kts 54°
2026-05-04 19:31 -37.17993 -64.02443 22903 ft 387 kts 55°
2026-05-04 19:31 -37.16649 -63.99529 22905 ft 387 kts 55°
2026-05-04 19:32 -37.15305 -63.96618 22908 ft 387 kts 55°
2026-05-04 19:32 -37.13945 -63.93674 22902 ft 387 kts 56°
2026-05-04 19:32 -37.12603 -63.90773 22901 ft 387 kts 56°
2026-05-04 19:32 -37.11259 -63.87870 22903 ft 387 kts 55°
2026-05-04 19:33 -37.09899 -63.84934 22903 ft 387 kts 55°
2026-05-04 19:33 -37.08550 -63.82024 22903 ft 388 kts 55°
2026-05-04 19:33 -37.07198 -63.79112 22901 ft 388 kts 55°
2026-05-04 19:33 -37.05835 -63.76177 22905 ft 388 kts 55°
2026-05-04 19:34 -37.04486 -63.73275 22903 ft 388 kts 55°
2026-05-04 19:34 -37.03120 -63.70340 22902 ft 388 kts 55°
2026-05-04 19:34 -37.01764 -63.67428 22902 ft 388 kts 55°
2026-05-04 19:34 -37.00405 -63.64512 22904 ft 389 kts 55°
2026-05-04 19:35 -36.99044 -63.61595 22902 ft 389 kts 55°
2026-05-04 19:35 -36.97683 -63.58681 22902 ft 389 kts 56°
2026-05-04 19:35 -36.96320 -63.55764 22904 ft 389 kts 56°
2026-05-04 19:35 -36.94958 -63.52855 22907 ft 389 kts 55°
2026-05-04 19:36 -36.93596 -63.49945 22910 ft 389 kts 55°
2026-05-04 19:36 -36.92233 -63.47035 22911 ft 390 kts 56°
2026-05-04 19:36 -36.90854 -63.44095 22915 ft 390 kts 55°
2026-05-04 19:36 -36.89488 -63.41186 22914 ft 390 kts 55°
2026-05-04 19:37 -36.88122 -63.38277 22915 ft 390 kts 55°
2026-05-04 19:37 -36.86752 -63.35363 22918 ft 390 kts 56°
2026-05-04 19:37 -36.85381 -63.32451 22917 ft 390 kts 55°
2026-05-04 19:37 -36.83999 -63.29519 22917 ft 389 kts 55°
2026-05-04 19:38 -36.82638 -63.26632 22918 ft 389 kts 54°
2026-05-04 19:38 -36.81255 -63.23701 22922 ft 389 kts 54°
2026-05-04 19:38 -36.79893 -63.20817 22920 ft 389 kts 54°
2026-05-04 19:38 -36.78514 -63.17899 22921 ft 389 kts 55°
2026-05-04 19:39 -36.77138 -63.14991 22917 ft 389 kts 55°
2026-05-04 19:39 -36.75771 -63.12104 22919 ft 389 kts 55°
2026-05-04 19:39 -36.74394 -63.09199 22921 ft 389 kts 55°
2026-05-04 19:39 -36.73020 -63.06303 22921 ft 389 kts 55°
2026-05-04 19:40 -36.71642 -63.03402 22922 ft 389 kts 55°
2026-05-04 19:40 -36.70273 -63.00521 22920 ft 389 kts 55°
2026-05-04 19:40 -36.68896 -62.97625 22920 ft 389 kts 55°
2026-05-04 19:40 -36.67520 -62.94735 22920 ft 390 kts 55°
2026-05-04 19:41 -36.66128 -62.91814 22918 ft 390 kts 55°
2026-05-04 19:41 -36.64753 -62.88930 22918 ft 390 kts 56°
2026-05-04 19:41 -36.63368 -62.86029 22920 ft 390 kts 56°
2026-05-04 19:41 -36.61974 -62.83109 22921 ft 390 kts 56°
2026-05-04 19:42 -36.60599 -62.80235 22922 ft 390 kts 56°
2026-05-04 19:42 -36.59202 -62.77314 22919 ft 391 kts 56°
2026-05-04 19:42 -36.57826 -62.74442 22918 ft 391 kts 55°
2026-05-04 19:42 -36.56438 -62.71545 22921 ft 391 kts 56°
2026-05-04 19:43 -36.55032 -62.68614 22924 ft 391 kts 55°
2026-05-04 19:43 -36.53643 -62.65722 22924 ft 391 kts 56°
2026-05-04 19:43 -36.52259 -62.62842 22922 ft 391 kts 56°
2026-05-04 19:43 -36.50852 -62.59918 22918 ft 392 kts 56°
2026-05-04 19:44 -36.49462 -62.57031 22924 ft 392 kts 56°
2026-05-04 19:44 -36.48076 -62.54154 22927 ft 392 kts 56°
2026-05-04 19:44 -36.46668 -62.51235 22926 ft 392 kts 56°
2026-05-04 19:44 -36.45272 -62.48344 22922 ft 392 kts 56°
2026-05-04 19:45 -36.43857 -62.45414 22922 ft 393 kts 56°
2026-05-04 19:45 -36.42452 -62.42508 22917 ft 393 kts 56°
2026-05-04 19:45 -36.41049 -62.39609 22917 ft 393 kts 56°
2026-05-04 19:45 -36.39653 -62.36726 22921 ft 393 kts 56°
2026-05-04 19:46 -36.38238 -62.33808 22922 ft 393 kts 55°
2026-05-04 19:46 -36.36832 -62.30909 22922 ft 393 kts 55°
2026-05-04 19:46 -36.35422 -62.28005 22927 ft 392 kts 55°
2026-05-04 19:46 -36.34019 -62.25119 22933 ft 392 kts 56°
2026-05-04 19:47 -36.32611 -62.22224 22935 ft 392 kts 55°
2026-05-04 19:47 -36.31204 -62.19330 22929 ft 392 kts 56°
2026-05-04 19:47 -36.29804 -62.16449 22929 ft 392 kts 56°
2026-05-04 19:47 -36.28388 -62.13536 22933 ft 392 kts 56°
2026-05-04 19:48 -36.26984 -62.10651 22935 ft 392 kts 56°
2026-05-04 19:48 -36.25581 -62.07772 22935 ft 392 kts 56°
2026-05-04 19:48 -36.24176 -62.04889 22939 ft 391 kts 56°
2026-05-04 19:48 -36.22775 -62.02018 22937 ft 391 kts 56°
2026-05-04 19:49 -36.21369 -61.99140 22936 ft 391 kts 56°
2026-05-04 19:49 -36.19963 -61.96263 22937 ft 391 kts 56°
2026-05-04 19:49 -36.18560 -61.93397 22936 ft 392 kts 56°
2026-05-04 19:49 -36.17618 -61.91472 22938 ft 392 kts 56°
2026-05-04 19:50 -36.16196 -61.88570 22940 ft 392 kts 56°
2026-05-04 19:50 -36.14327 -61.84759 22934 ft 392 kts 56°
2026-05-04 19:50 -36.12899 -61.81849 22936 ft 392 kts 56°
2026-05-04 19:50 -36.11500 -61.79005 22931 ft 393 kts 56°
2026-05-04 19:51 -36.10084 -61.76124 22926 ft 393 kts 56°
2026-05-04 19:51 -36.08662 -61.73236 22920 ft 393 kts 56°
2026-05-04 19:51 -36.07242 -61.70353 22922 ft 393 kts 56°
2026-05-04 19:51 -36.05821 -61.67469 22926 ft 393 kts 56°
2026-05-04 19:52 -36.04391 -61.64573 22924 ft 393 kts 56°
2026-05-04 19:52 -36.02964 -61.61683 22921 ft 394 kts 56°
2026-05-04 19:52 -36.01540 -61.58802 22922 ft 394 kts 56°
2026-05-04 19:52 -36.00129 -61.55948 22923 ft 394 kts 56°
2026-05-04 19:53 -35.98698 -61.53059 22926 ft 393 kts 56°
2026-05-04 19:53 -35.97270 -61.50176 22929 ft 393 kts 55°
2026-05-04 19:53 -35.95842 -61.47298 22928 ft 394 kts 56°
2026-05-04 19:53 -35.94414 -61.44422 22927 ft 394 kts 56°
2026-05-04 19:54 -35.92985 -61.41544 22926 ft 394 kts 56°
2026-05-04 19:54 -35.91553 -61.38665 22924 ft 394 kts 55°
2026-05-04 19:54 -35.90123 -61.35790 22931 ft 394 kts 55°
2026-05-04 19:54 -35.88689 -61.32911 22934 ft 393 kts 54°
2026-05-04 19:55 -35.87275 -61.30067 22939 ft 392 kts 55°
2026-05-04 19:55 -35.85860 -61.27201 22940 ft 392 kts 55°
2026-05-04 19:55 -35.84444 -61.24330 22939 ft 391 kts 55°
2026-05-04 19:55 -35.83028 -61.21464 22940 ft 391 kts 55°
2026-05-04 19:56 -35.81610 -61.18596 22944 ft 390 kts 55°
2026-05-04 19:56 -35.80212 -61.15772 22946 ft 390 kts 55°
2026-05-04 19:56 -35.78799 -61.12919 22945 ft 390 kts 55°
2026-05-04 19:56 -35.77384 -61.10066 22944 ft 390 kts 55°
2026-05-04 19:57 -35.75969 -61.07216 22943 ft 390 kts 55°
2026-05-04 19:57 -35.74555 -61.04369 22941 ft 389 kts 55°
2026-05-04 19:57 -35.73145 -61.01533 22937 ft 389 kts 55°
2026-05-04 19:57 -35.71732 -60.98695 22938 ft 389 kts 55°
2026-05-04 19:58 -35.70337 -60.95893 22933 ft 389 kts 55°
2026-05-04 19:58 -35.68924 -60.93058 22937 ft 389 kts 55°
2026-05-04 19:58 -35.67495 -60.90194 22937 ft 389 kts 55°
2026-05-04 19:58 -35.66084 -60.87369 22939 ft 389 kts 55°
2026-05-04 19:59 -35.64674 -60.84548 22937 ft 389 kts 55°
2026-05-04 19:59 -35.63267 -60.81735 22937 ft 389 kts 55°
2026-05-04 19:59 -35.61838 -60.78880 22940 ft 389 kts 56°
2026-05-04 19:59 -35.60426 -60.76061 22937 ft 390 kts 55°
2026-05-04 20:00 -35.58997 -60.73212 22936 ft 390 kts 56°
2026-05-04 20:00 -35.57583 -60.70395 22935 ft 390 kts 56°
2026-05-04 20:00 -35.56169 -60.67578 22940 ft 390 kts 56°
2026-05-04 20:00 -35.54736 -60.64727 22941 ft 390 kts 55°
2026-05-04 20:01 -35.53317 -60.61907 22935 ft 391 kts 56°
2026-05-04 20:01 -35.51881 -60.59054 22937 ft 391 kts 56°
2026-05-04 20:01 -35.50454 -60.56222 22939 ft 391 kts 55°
2026-05-04 20:01 -35.49028 -60.53395 22936 ft 391 kts 55°
2026-05-04 20:02 -35.47606 -60.50578 22934 ft 391 kts 56°
2026-05-04 20:02 -35.46162 -60.47718 22936 ft 392 kts 55°
2026-05-04 20:02 -35.44739 -60.44903 22936 ft 392 kts 56°
2026-05-04 20:02 -35.43290 -60.42040 22935 ft 392 kts 56°
2026-05-04 20:03 -35.41859 -60.39215 22939 ft 392 kts 56°
2026-05-04 20:03 -35.40433 -60.36400 22941 ft 393 kts 56°
2026-05-04 20:03 -35.38982 -60.33538 22941 ft 392 kts 55°
2026-05-04 20:03 -35.37549 -60.30716 22945 ft 392 kts 55°
2026-05-04 20:04 -35.36101 -60.27865 22943 ft 392 kts 55°
2026-05-04 20:04 -35.34664 -60.25038 22941 ft 391 kts 55°
2026-05-04 20:04 -35.33228 -60.22218 22948 ft 391 kts 55°
2026-05-04 20:04 -35.31793 -60.19398 22948 ft 391 kts 55°
2026-05-04 20:05 -35.30347 -60.16563 22948 ft 391 kts 55°
2026-05-04 20:05 -35.28912 -60.13749 22949 ft 391 kts 55°
2026-05-04 20:05 -35.27476 -60.10935 22947 ft 391 kts 55°
2026-05-04 20:05 -35.26041 -60.08126 22950 ft 391 kts 56°
2026-05-04 20:06 -35.24602 -60.05313 22946 ft 391 kts 56°
2026-05-04 20:06 -35.23146 -60.02467 22947 ft 391 kts 56°
2026-05-04 20:06 -35.21708 -59.99660 22951 ft 391 kts 56°
2026-05-04 20:06 -35.20269 -59.96852 22953 ft 391 kts 56°
2026-05-04 20:07 -35.18830 -59.94047 22946 ft 392 kts 56°
2026-05-04 20:07 -35.17381 -59.91226 22951 ft 392 kts 56°
2026-05-04 20:07 -35.15936 -59.88412 22954 ft 392 kts 56°
2026-05-04 20:07 -35.14489 -59.85598 22956 ft 392 kts 56°
2026-05-04 20:08 -35.13025 -59.82753 22984 ft 391 kts 56°
2026-05-04 20:08 -35.11584 -59.79955 23014 ft 390 kts 56°
2026-05-04 20:08 -35.10142 -59.77158 22981 ft 391 kts 56°
2026-05-04 20:08 -35.08689 -59.74343 22807 ft 396 kts 56°
2026-05-04 20:09 -35.07220 -59.71498 22629 ft 399 kts 56°
2026-05-04 20:09 -35.05740 -59.68634 22442 ft 400 kts 56°
2026-05-04 20:09 -35.04265 -59.65784 22256 ft 396 kts 56°
2026-05-04 20:09 -35.02829 -59.62933 22066 ft 393 kts 60°
2026-05-04 20:10 -35.01906 -59.59806 21857 ft 385 kts 78°
2026-05-04 20:10 -35.01391 -59.56661 21667 ft 378 kts 80°
2026-05-04 20:10 -35.00864 -59.53557 21463 ft 372 kts 79°
2026-05-04 20:10 -35.00339 -59.50505 21225 ft 368 kts 79°
2026-05-04 20:11 -34.99810 -59.47477 20962 ft 365 kts 79°
2026-05-04 20:11 -34.99278 -59.44442 20701 ft 362 kts 79°
2026-05-04 20:11 -34.98759 -59.41479 20434 ft 356 kts 79°
2026-05-04 20:11 -34.98247 -59.38584 20161 ft 347 kts 79°
2026-05-04 20:12 -34.97734 -59.35758 19888 ft 338 kts 79°
2026-05-04 20:12 -34.97228 -59.32996 19611 ft 330 kts 78°
2026-05-04 20:12 -34.96737 -59.30311 19337 ft 320 kts 79°
2026-05-04 20:12 -34.96258 -59.27708 19042 ft 311 kts 79°
2026-05-04 20:13 -34.95788 -59.25147 18704 ft 303 kts 79°
2026-05-04 20:13 -34.95334 -59.22678 18362 ft 296 kts 79°
2026-05-04 20:13 -34.94893 -59.20275 18020 ft 289 kts 79°
2026-05-04 20:13 -34.94461 -59.17930 17682 ft 282 kts 79°
2026-05-04 20:14 -34.94040 -59.15642 17344 ft 274 kts 79°
2026-05-04 20:14 -34.93628 -59.13414 16999 ft 266 kts 78°
2026-05-04 20:14 -34.93231 -59.11261 16671 ft 256 kts 78°
2026-05-04 20:14 -34.92841 -59.09129 16402 ft 257 kts 78°
2026-05-04 20:15 -34.92455 -59.06996 16153 ft 261 kts 78°
2026-05-04 20:15 -34.92059 -59.04829 15896 ft 262 kts 78°
2026-05-04 20:15 -34.91662 -59.02681 15628 ft 258 kts 77°
2026-05-04 20:15 -34.91270 -59.00572 15356 ft 253 kts 77°
2026-05-04 20:16 -34.90749 -58.98567 15068 ft 244 kts 53°
2026-05-04 20:16 -34.89595 -58.97278 14762 ft 218 kts 18°
2026-05-04 20:16 -34.88245 -58.96482 14506 ft 209 kts 15°
2026-05-04 20:16 -34.86959 -58.95754 14246 ft 204 kts 14°
2026-05-04 20:17 -34.85665 -58.95028 14063 ft 206 kts 14°
2026-05-04 20:17 -34.84358 -58.94302 13869 ft 206 kts 14°
2026-05-04 20:17 -34.83046 -58.93578 13632 ft 207 kts 14°
2026-05-04 20:17 -34.81731 -58.92857 13322 ft 207 kts 14°
2026-05-04 20:18 -34.80405 -58.92130 13106 ft 208 kts 14°
2026-05-04 20:18 -34.79090 -58.91411 12840 ft 208 kts 15°
2026-05-04 20:18 -34.77766 -58.90689 12575 ft 209 kts 15°
2026-05-04 20:18 -34.76430 -58.89961 12334 ft 209 kts 15°
2026-05-04 20:19 -34.75107 -58.89240 12098 ft 210 kts 15°
2026-05-04 20:19 -34.73761 -58.88510 11865 ft 212 kts 16°
2026-05-04 20:19 -34.72407 -58.87776 11629 ft 213 kts 16°
2026-05-04 20:19 -34.71046 -58.87038 11391 ft 215 kts 17°
2026-05-04 20:20 -34.69682 -58.86298 11150 ft 213 kts 17°
2026-05-04 20:20 -34.68336 -58.85568 10902 ft 210 kts 17°
2026-05-04 20:20 -34.67003 -58.84846 10653 ft 207 kts 18°
2026-05-04 20:20 -34.65697 -58.84139 10405 ft 204 kts 18°
2026-05-04 20:21 -34.64419 -58.83447 10161 ft 201 kts 18°
2026-05-04 20:21 -34.63137 -58.82753 9912 ft 198 kts 18°
2026-05-04 20:21 -34.60653 -58.81409 9423 ft 192 kts 18°
2026-05-04 20:22 -34.59441 -58.80754 9185 ft 189 kts 18°
2026-05-04 20:22 -34.58246 -58.80107 8952 ft 186 kts 18°
2026-05-04 20:22 -34.57084 -58.79478 8730 ft 181 kts 18°
2026-05-04 20:22 -34.55920 -58.78984 8494 ft 172 kts
2026-05-04 20:23 -34.54751 -58.78818 8263 ft 166 kts 358°
2026-05-04 20:23 -34.53601 -58.78692 8021 ft 164 kts 359°
2026-05-04 20:23 -34.52475 -58.78565 7829 ft 161 kts 359°
2026-05-04 20:23 -34.51360 -58.78436 7681 ft 160 kts 360°
2026-05-04 20:24 -34.50251 -58.78307 7540 ft 160 kts 359°
2026-05-04 20:24 -34.49141 -58.78177 7399 ft 159 kts 360°
2026-05-04 20:24 -34.48048 -58.78048 7262 ft 158 kts 360°
2026-05-04 20:24 -34.46946 -58.77918 7155 ft 158 kts 359°
2026-05-04 20:25 -34.45858 -58.77789 7025 ft 159 kts 359°
2026-05-04 20:25 -34.44737 -58.77657 6883 ft 162 kts 360°
2026-05-04 20:25 -34.43612 -58.77525 6732 ft 164 kts
2026-05-04 20:25 -34.42459 -58.77390 6567 ft 165 kts 360°
2026-05-04 20:26 -34.41317 -58.77256 6367 ft 165 kts
2026-05-04 20:26 -34.40179 -58.77123 6129 ft 163 kts
2026-05-04 20:26 -34.39053 -58.76991 5902 ft 161 kts
2026-05-04 20:26 -34.37949 -58.76861 5678 ft 158 kts
2026-05-04 20:27 -34.36851 -58.76732 5448 ft 156 kts
2026-05-04 20:27 -34.35776 -58.76604 5213 ft 151 kts
2026-05-04 20:27 -34.34774 -58.76344 4952 ft 152 kts 27°
2026-05-04 20:27 -34.34198 -58.75229 4419 ft 176 kts 84°
2026-05-04 20:28 -34.34618 -58.73846 4024 ft 178 kts 128°
2026-05-04 20:28 -34.35413 -58.72753 3812 ft 171 kts 132°
2026-05-04 20:28 -34.36211 -58.71708 3681 ft 164 kts 133°
2026-05-04 20:28 -34.36983 -58.70718 3592 ft 161 kts 133°
2026-05-04 20:29 -34.37746 -58.69748 3482 ft 158 kts 133°
2026-05-04 20:29 -34.38507 -58.68785 3394 ft 155 kts 133°
2026-05-04 20:29 -34.39252 -58.67849 3279 ft 155 kts 133°
2026-05-04 20:29 -34.40007 -58.66904 3209 ft 158 kts 134°
2026-05-04 20:30 -34.40778 -58.65944 3188 ft 157 kts 134°
2026-05-04 20:30 -34.41540 -58.64995 3170 ft 158 kts 134°
2026-05-04 20:30 -34.42312 -58.64033 3134 ft 163 kts 134°
2026-05-04 20:30 -34.43119 -58.63024 3024 ft 168 kts 134°
2026-05-04 20:31 -34.43930 -58.62005 2935 ft 167 kts 133°
2026-05-04 20:31 -34.44723 -58.61009 2877 ft 161 kts 133°
2026-05-04 20:31 -34.45482 -58.60058 2801 ft 152 kts 133°
2026-05-04 20:31 -34.46184 -58.59082 2642 ft 154 kts 124°
2026-05-04 20:32 -34.46785 -58.58028 2534 ft 152 kts 122°
2026-05-04 20:32 -34.47367 -58.56984 2436 ft 145 kts 122°
2026-05-04 20:32 -34.47932 -58.55988 2269 ft 145 kts 124°
2026-05-04 20:32 -34.48547 -58.54992 2061 ft 147 kts 124°
2026-05-04 20:33 -34.49204 -58.54076 1927 ft 144 kts 127°
2026-05-04 20:33 -34.49751 -58.53054 1733 ft 143 kts 117°
2026-05-04 20:33 -34.50258 -58.52020 1654 ft 143 kts 117°
2026-05-04 20:33 -34.50730 -58.50944 1581 ft 145 kts 115°
2026-05-04 20:34 -34.51247 -58.49856 1488 ft 152 kts 121°
2026-05-04 20:34 -34.51862 -58.48788 1335 ft 160 kts 124°
2026-05-04 20:34 -34.52525 -58.47675 1202 ft 163 kts 124°
2026-05-04 20:34 -34.53188 -58.46529 990 ft 171 kts 123°
2026-05-04 20:35 -34.53859 -58.45314 730 ft 171 kts 123°
2026-05-04 20:35 -34.54528 -58.44126 458 ft 171 kts 121°
2026-05-04 20:35 -34.55164 -58.42954 140 ft 163 kts 122°
2026-05-04 20:35 -34.55732 -58.41899 27 ft 115 kts 124°
2026-05-04 20:36 -34.56029 -58.41381 34 ft 35 kts 124°
2026-05-04 20:36 -34.56140 -58.41173 36 ft 18 kts 124°
2026-05-04 20:36 -34.56182 -58.41043 34 ft 7 kts 68°
2026-05-04 20:36 -34.56156 -58.40976 32 ft 7 kts 45°
2026-05-04 20:37 -34.56109 -58.40998 32 ft 10 kts 307°
2026-05-04 20:37 -34.56057 -58.41055 32 ft 10 kts 346°
2026-05-04 20:37 -34.55999 -58.41088 32 ft 8 kts 330°
2026-05-04 20:37 -34.55950 -58.41106 31 ft 9 kts 24°
2026-05-04 20:38 -34.55915 -58.41077 30 ft 0 kts 40°